Volver al catálogo

STARLINK-5911

ActivoComunicacionesVLEO
NORAD 55950·PAYLOAD·🇺🇸 United States

Lanzado Mar 17, 2023 desde Vandenberg Space Force Base

Loading…

Próximos Pases (próximas 24 horas)

TLE

ActualizadoSource: CelesTrak SupGP

Época: Sep 15, 2026, 01:41 UTC

1 55950C 23037AN  26258.07062500  .00028540  00000+0  23917-2 0  2582
2 55950  70.0003 147.0482 0002754 265.4334 267.1591 14.98317463    15

Sigue STARLINK-5911 en tiempo real con AllMySat

Download on the App Store